Weather History for Peoria, IL

Change the Weather History Date:

Sunday, March 3, 2013

  Actual Average Record
Temperature  
Mean Temperature 22 °F 35 °F  
Max Temperature 33 °F 44 °F 78 °F (1974)
Min Temperature 10 °F 27 °F -6 °F (2014)
Degree Days  
Heating Degree Days 43 30  
Month to date heating degree days 123 90  
Since 1 July heating degree days 4416 4606  
Cooling Degree Days 0 0  
Month to date cooling degree days 0 0  
Year to date cooling degree days 0 0  
Moisture  
Dew Point 11 °F    
Average Humidity 64    
Maximum Humidity 88    
Minimum Humidity 39    
Precipitation  
Precipitation 0.00 in 0.08 in 1.67 in (1985)
Month to date precipitation 0.01 0.24  
Year to date precipitation 6.74 3.81  
Snow  
Snow 0.00 in 0.10 in 2.00 in (1982)
Month to date snowfall T 0.4  
Since 1 July snowfall 11.9 21.7  
Snow Depth 3.00 in    
Sea Level Pressure  
Sea Level Pressure 30.16 in    
Wind  
Wind Speed 3 mph (SSE)    
Max Wind Speed 9 mph    
Max Gust Speed 12 mph    
Visibility 10 miles    
Events      
T = Trace of Precipitation, MM = Missing Value Source: NWS Daily Summary

Daily Weather History Graph

Daily Weather History Graph

Search for Another Location

Airport:

Trip Planner

Search our weather history database for the weather conditions in past years. The results will help you decide how hot, cold, wet, or windy it might be!

Date:

Astronomy

Mar. 03, 2013 Rise Set
Actual Time 6:29 AM CST 5:52 PM CST
Civil Twilight 6:01 AM CST 6:20 PM CST
Nautical Twilight 5:30 AM CST 6:51 PM CST
Astronomical Twilight 4:58 AM CST 7:23 PM CST
Moon No Moon Rise 9:42 AM CST (3/3)
Length of Visible Light 12h 18m
Length of Day
11h 23m
Waning Gibbous, 63% of the Moon is Illuminated
Mar 3
Waning Gibbous
Mar 4
Last Quarter
Mar 11
New
Mar 19
First Quarter
Mar 27
Full

Hourly Weather History & Observations

Time (CST) Temp. Windchill Dew Point Humidity Pressure Visibility Wind Dir Wind Speed Gust Speed Precip Events Conditions
12:54 AM 16.0 °F 10.4 °F 10.0 °F 77% 30.23 in 10.0 mi NW 3.5 mph - N/A   Clear
1:54 AM 14.0 °F - 9.0 °F 80% 30.22 in 10.0 mi Calm Calm - N/A   Clear
2:54 AM 12.0 °F - 8.1 °F 84% 30.19 in 10.0 mi Calm Calm - N/A   Clear
3:54 AM 12.9 °F 6.9 °F 9.0 °F 84% 30.19 in 10.0 mi NNW 3.5 mph - N/A   Clear
4:54 AM 12.9 °F 6.9 °F 8.1 °F 81% 30.20 in 10.0 mi NW 3.5 mph - N/A   Clear
5:54 AM 12.2 °F 6.1 °F 6.8 °F 79% 30.17 in 10.0 mi North 3.5 mph - N/A   Clear
6:54 AM 10.9 °F - 7.0 °F 84% 30.21 in 7.0 mi Calm Calm - N/A   Clear
7:54 AM 15.1 °F - 12.0 °F 88% 30.21 in 8.0 mi Calm Calm - N/A   Clear
8:54 AM 19.0 °F - 12.9 °F 77% 30.21 in 10.0 mi Calm Calm - N/A   Clear
9:54 AM 26.1 °F - 12.9 °F 58% 30.20 in 10.0 mi Calm Calm - N/A   Clear
10:54 AM 28.0 °F 22.8 °F 6.1 °F 39% 30.18 in 10.0 mi SW 4.6 mph - N/A   Clear
11:54 AM 28.9 °F - 8.1 °F 41% 30.17 in 10.0 mi Calm Calm - N/A   Clear
12:54 PM 30.0 °F 25.2 °F 9.0 °F 41% 30.15 in 10.0 mi WSW 4.6 mph - N/A   Clear
1:54 PM 30.9 °F 26.2 °F 14.0 °F 50% 30.13 in 10.0 mi SW 4.6 mph - N/A   Clear
2:54 PM 32.0 °F 28.7 °F 12.0 °F 44% 30.12 in 10.0 mi Variable 3.5 mph - N/A   Clear
3:54 PM 32.0 °F 25.6 °F 16.0 °F 52% 30.11 in 10.0 mi South 6.9 mph - N/A   Clear
4:54 PM 30.9 °F 25.2 °F 15.1 °F 52% 30.11 in 10.0 mi South 5.8 mph - N/A   Clear
5:54 PM 30.0 °F 25.2 °F 10.9 °F 45% 30.11 in 10.0 mi SSE 4.6 mph - N/A   Clear
6:54 PM 28.9 °F - 10.9 °F 47% 30.12 in 10.0 mi Calm Calm - N/A   Clear
7:54 PM 28.0 °F 24.2 °F 12.0 °F 51% 30.11 in 10.0 mi East 3.5 mph - N/A   Clear
8:54 PM 27.0 °F 21.6 °F 14.0 °F 58% 30.11 in 10.0 mi East 4.6 mph - N/A   Clear
9:54 PM 27.0 °F 20.5 °F 15.1 °F 61% 30.10 in 10.0 mi East 5.8 mph - N/A   Clear
10:54 PM 27.0 °F 20.5 °F 15.1 °F 61% 30.10 in 10.0 mi East 5.8 mph - N/A   Clear
11:54 PM 27.0 °F 18.7 °F 12.9 °F 56% 30.10 in 10.0 mi ESE 8.1 mph - N/A   Clear